| time (UTC) | temp C | wind direction | speed KPH | gust KPH | rain 1hr cm | rain 24hr cm | rain mn cm | humidity % | barometer mb |
| 20260506165223 | 12 | 246 | 6.4 | 6.4 | 0.00 | 0.00 | 0.00 | 90 | 1019.0 |
| 20260506164721 | 12 | 249 | 6.4 | 19.3 | 0.00 | 0.00 | 0.00 | 89 | 1018.9 |
| 20260506164217 | 12 | 273 | 3.2 | 17.7 | 0.00 | 0.00 | 0.00 | 89 | 1018.9 |
| 20260506163714 | 12 | 189 | 6.4 | 11.3 | 0.00 | 0.00 | 0.00 | 88 | 1019.1 |
| 20260506163209 | 12 | 241 | 3.2 | 6.4 | 0.00 | 0.00 | 0.00 | 89 | 1019.1 |
| 20260506162705 | 12 | 264 | 4.8 | 6.4 | 0.00 | 0.00 | 0.00 | 88 | 1019.1 |
| 20260506162203 | 12 | 261 | 4.8 | 6.4 | 0.00 | 0.00 | 0.00 | 89 | 1018.9 |
| 20260506161700 | 12 | 200 | 4.8 | 6.4 | 0.00 | 0.00 | 0.00 | 87 | 1019.0 |
| 20260506161156 | 12 | 219 | 6.4 | 11.3 | 0.00 | 0.00 | 0.00 | 88 | 1019.2 |
| 20260506160654 | 12 | 248 | 9.7 | 9.7 | 0.00 | 0.00 | 0.00 | 87 | 1019.1 |
| 20260506160151 | 12 | 214 | 1.6 | 4.8 | 0.00 | 0.00 | 0.00 | 88 | 1019.1 |
| 20260506155649 | 12 | 212 | 8.0 | 8.0 | 0.00 | 0.00 | 0.00 | 89 | 1019.1 |
| 20260506155146 | 12 | 250 | 4.8 | 4.8 | 0.00 | 0.00 | 0.00 | 89 | 1019.0 |
| 20260506153248 | 12 | 237 | 3.2 | 4.8 | 0.00 | 0.00 | 0.00 | 89 | 1018.8 |
| 20260506152745 | 12 | 240 | 4.8 | 6.4 | 0.00 | 0.00 | 0.00 | 89 | 1018.7 |
| 20260506152242 | 12 | 241 | 4.8 | 6.4 | 0.00 | 0.00 | 0.00 | 89 | 1018.6 |
| 20260506151741 | 12 | 222 | 4.8 | 6.4 | 0.00 | 0.00 | 0.00 | 89 | 1018.5 |
| 20260506151237 | 12 | 189 | 3.2 | 4.8 | 0.00 | 0.00 | 0.00 | 90 | 1018.5 |
| 20260506150734 | 11 | 200 | 4.8 | 6.4 | 0.00 | 0.00 | 0.00 | 91 | 1018.3 |
| 20260506150231 | 11 | 200 | 3.2 | 4.8 | 0.00 | 0.00 | 0.00 | 91 | 1018.5 |
| 20260506145728 | 11 | 172 | 1.6 | 3.2 | 0.00 | 0.00 | 0.00 | 91 | 1018.5 |
| 20260506145225 | 11 | 223 | 4.8 | 6.4 | 0.00 | 0.00 | 0.00 | 91 | 1018.4 |
| 20260506144722 | 11 | 179 | 3.2 | 4.8 | 0.00 | 0.00 | 0.00 | 91 | 1018.2 |
| 20260506144219 | 11 | 183 | 4.8 | 4.8 | 0.00 | 0.00 | 0.00 | 92 | 1018.4 |
| 20260506143716 | 11 | 199 | 3.2 | 6.4 | 0.00 | 0.00 | 0.00 | 91 | 1018.3 |
| 20260506143214 | 11 | 212 | 4.8 | 4.8 | 0.00 | 0.00 | 0.00 | 92 | 1018.2 |
| 20260506142712 | 11 | 239 | 3.2 | 4.8 | 0.00 | 0.00 | 0.00 | 92 | 1018.6 |
| 20260506142210 | 11 | 191 | 3.2 | 8.0 | 0.00 | 0.00 | 0.00 | 93 | 1018.4 |
| 20260506141708 | 11 | 217 | 3.2 | 4.8 | 0.00 | 0.00 | 0.00 | 93 | 1018.4 |
| 20260506141206 | 11 | 224 | 3.2 | 4.8 | 0.00 | 0.00 | 0.00 | 94 | 1018.4 |
| 20260506140703 | 10 | 210 | 3.2 | 4.8 | 0.00 | 0.00 | 0.00 | 94 | 1018.5 |
| 20260506140200 | 10 | 199 | 3.2 | 4.8 | 0.00 | 0.00 | 0.00 | 94 | 1018.4 |
| 20260506135657 | 10 | 194 | 4.8 | 6.4 | 0.00 | 0.00 | 0.00 | 95 | 1018.2 |
| 20260506135153 | 10 | 219 | 4.8 | 6.4 | 0.00 | 0.00 | 0.00 | 95 | 1018.2 |
| 20260506134650 | 10 | 212 | 4.8 | 8.0 | 0.00 | 0.00 | 0.00 | 95 | 1018.1 |
| 20260506134146 | 10 | 186 | 4.8 | 8.0 | 0.00 | 0.00 | 0.00 | 95 | 1018.1 |
| 20260506133643 | 10 | 149 | 6.4 | 6.4 | 0.00 | 0.00 | 0.00 | 95 | 1018.1 |
| 20260506133140 | 10 | 189 | 4.8 | 6.4 | 0.00 | 0.00 | 0.00 | 95 | 1017.9 |
| 20260506132637 | 10 | 191 | 4.8 | 6.4 | 0.00 | 0.00 | 0.00 | 96 | 1018.1 |
| 20260506132134 | 10 | 204 | 4.8 | 4.8 | 0.00 | 0.00 | 0.00 | 96 | 1018.0 |
| 20260506131632 | 10 | 175 | 4.8 | 6.4 | 0.00 | 0.00 | 0.00 | 96 | 1018.0 |
| 20260506131128 | 10 | 190 | 1.6 | 6.4 | 0.00 | 0.00 | 0.00 | 96 | 1018.1 |
| 20260506130625 | 9 | 195 | 4.8 | 6.4 | 0.00 | 0.00 | 0.00 | 96 | 1018.1 |
| 20260506130122 | 9 | 186 | 4.8 | 8.0 | 0.00 | 0.00 | 0.00 | 96 | 1017.9 |
| 20260506125620 | 9 | 204 | 6.4 | 6.4 | 0.00 | 0.00 | 0.00 | 96 | 1017.9 |
| 20260506125117 | 9 | 215 | 4.8 | 6.4 | 0.00 | 0.00 | 0.00 | 96 | 1018.0 |
| 20260506124615 | 9 | 224 | 6.4 | 6.4 | 0.00 | 0.00 | 0.00 | 96 | 1017.9 |
| 20260506124113 | 9 | 216 | 6.4 | 8.0 | 0.00 | 0.00 | 0.00 | 96 | 1017.9 |
| 20260506123611 | 9 | 187 | 1.6 | 4.8 | 0.00 | 0.00 | 0.00 | 97 | 1018.0 |
| 20260506123109 | 9 | 200 | 4.8 | 4.8 | 0.00 | 0.00 | 0.00 | 96 | 1017.9 |
| 20260506122605 | 9 | 233 | 3.2 | 4.8 | 0.00 | 0.00 | 0.00 | 96 | 1017.6 |
| 20260506122103 | 9 | 220 | 4.8 | 4.8 | 0.00 | 0.00 | 0.00 | 96 | 1017.9 |
| 20260506121601 | 9 | 220 | 6.4 | 6.4 | 0.00 | 0.00 | 0.00 | 96 | 1017.9 |
| 20260506121057 | 9 | 225 | 4.8 | 8.0 | 0.00 | 0.00 | 0.00 | 96 | 1017.8 |
| 20260506120555 | 10 | 206 | 4.8 | 4.8 | 0.00 | 0.00 | 0.00 | 96 | 1017.7 |
| 20260506120051 | 9 | 202 | 3.2 | 4.8 | 0.00 | 0.00 | 0.00 | 96 | 1017.7 |
| 20260506115549 | 9 | 195 | 4.8 | 4.8 | 0.00 | 0.00 | 0.00 | 96 | 1017.7 |
| 20260506115048 | 9 | 176 | 4.8 | 4.8 | 0.00 | 0.00 | 0.00 | 96 | 1017.6 |
| 20260506114545 | 9 | 217 | 4.8 | 6.4 | 0.00 | 0.00 | 0.00 | 96 | 1017.7 |
| 20260506114043 | 9 | 218 | 4.8 | 6.4 | 0.00 | 0.00 | 0.00 | 96 | 1017.9 |
| 20260506113541 | 9 | 219 | 4.8 | 4.8 | 0.00 | 0.00 | 0.00 | 96 | 1017.6 |
| 20260506113038 | 9 | 194 | 4.8 | 4.8 | 0.00 | 0.00 | 0.00 | 96 | 1017.5 |
| 20260506112534 | 10 | 222 | 4.8 | 4.8 | 0.00 | 0.00 | 0.00 | 96 | 1017.4 |
| 20260506112032 | 10 | 223 | 4.8 | 4.8 | 0.00 | 0.00 | 0.00 | 96 | 1017.5 |
| 20260506111530 | 10 | 249 | 4.8 | 4.8 | 0.00 | 0.00 | 0.00 | 96 | 1017.4 |
| 20260506111027 | 10 | 233 | 4.8 | 6.4 | 0.00 | 0.00 | 0.00 | 96 | 1017.4 |
| 20260506110524 | 10 | 232 | 4.8 | 8.0 | 0.00 | 0.00 | 0.00 | 96 | 1017.4 |
| 20260506110021 | 10 | 246 | 3.2 | 4.8 | 0.00 | 0.00 | 0.00 | 95 | 1017.2 |
| 20260506105517 | 10 | 232 | 4.8 | 4.8 | 0.00 | 0.00 | 0.00 | 95 | 1017.2 |
| 20260506105015 | 10 | 213 | 4.8 | 4.8 | 0.00 | 0.00 | 0.00 | 95 | 1016.9 |
| 20260506104513 | 10 | 219 | 8.0 | 8.0 | 0.00 | 0.00 | 0.00 | 95 | 1017.0 |
| 20260506104010 | 10 | 234 | 1.6 | 6.4 | 0.00 | 0.00 | 0.00 | 94 | 1016.9 |
| 20260506103507 | 10 | 229 | 3.2 | 4.8 | 0.00 | 0.00 | 0.00 | 94 | 1016.8 |
| 20260506103004 | 10 | 189 | 1.6 | 4.8 | 0.00 | 0.00 | 0.00 | 94 | 1016.7 |
| 20260506102502 | 10 | 216 | 1.6 | 6.4 | 0.00 | 0.00 | 0.00 | 94 | 1016.7 |
| 20260506101959 | 10 | 146 | 6.4 | 8.0 | 0.00 | 0.00 | 0.00 | 95 | 1016.6 |
| 20260506101455 | 10 | 164 | 4.8 | 9.7 | 0.00 | 0.00 | 0.00 | 95 | 1016.6 |
| 20260506100953 | 10 | 184 | 4.8 | 4.8 | 0.00 | 0.00 | 0.00 | 95 | 1016.6 |
| 20260506100451 | 10 | 190 | 3.2 | 4.8 | 0.00 | 0.00 | 0.00 | 95 | 1016.5 |
| 20260506095949 | 10 | 170 | 3.2 | 4.8 | 0.00 | 0.00 | 0.00 | 95 | 1016.7 |
| 20260506095447 | 10 | 196 | 4.8 | 4.8 | 0.00 | 0.00 | 0.00 | 95 | 1016.6 |
| 20260506094943 | 10 | 201 | 3.2 | 4.8 | 0.00 | 0.00 | 0.00 | 94 | 1016.5 |
| 20260506094442 | 10 | 183 | 3.2 | 4.8 | 0.00 | 0.00 | 0.00 | 94 | 1016.6 |
| 20260506093939 | 11 | 205 | 3.2 | 4.8 | 0.00 | 0.00 | 0.00 | 94 | 1016.6 |
| 20260506093437 | 11 | 182 | 4.8 | 4.8 | 0.00 | 0.00 | 0.00 | 94 | 1016.6 |
| 20260506092934 | 10 | 177 | 4.8 | 6.4 | 0.00 | 0.00 | 0.00 | 95 | 1016.6 |
| 20260506092432 | 10 | 176 | 3.2 | 4.8 | 0.00 | 0.00 | 0.00 | 94 | 1016.5 |
| 20260506091928 | 10 | 186 | 4.8 | 6.4 | 0.00 | 0.00 | 0.00 | 94 | 1016.4 |
| 20260506091427 | 10 | 193 | 6.4 | 8.0 | 0.00 | 0.00 | 0.00 | 95 | 1016.5 |
| 20260506090923 | 10 | 197 | 4.8 | 4.8 | 0.00 | 0.00 | 0.00 | 94 | 1016.6 |
| 20260506090421 | 10 | 211 | 4.8 | 4.8 | 0.00 | 0.00 | 0.00 | 94 | 1016.5 |
| 20260506085918 | 11 | 217 | 4.8 | 6.4 | 0.00 | 0.00 | 0.00 | 94 | 1016.5 |
| 20260506085414 | 11 | 234 | 3.2 | 4.8 | 0.00 | 0.00 | 0.00 | 94 | 1016.4 |
| 20260506084911 | 11 | 194 | 1.6 | 4.8 | 0.00 | 0.00 | 0.00 | 94 | 1016.3 |
| 20260506084408 | 11 | 201 | 3.2 | 4.8 | 0.00 | 0.00 | 0.00 | 94 | 1016.4 |
| 20260506083904 | 11 | 214 | 4.8 | 4.8 | 0.00 | 0.00 | 0.00 | 94 | 1016.4 |
| 20260506083401 | 11 | 216 | 4.8 | 6.4 | 0.00 | 0.00 | 0.00 | 93 | 1016.2 |
| 20260506082858 | 11 | 188 | 4.8 | 4.8 | 0.00 | 0.00 | 0.00 | 93 | 1016.3 |
| 20260506082355 | 11 | 212 | 4.8 | 8.0 | 0.00 | 0.00 | 0.00 | 92 | 1016.3 |
| 20260506081851 | 11 | 213 | 4.8 | 8.0 | 0.00 | 0.00 | 0.00 | 92 | 1016.2 |
| 20260506081350 | 11 | 214 | 4.8 | 4.8 | 0.00 | 0.00 | 0.00 | 92 | 1016.2 |
| 20260506080847 | 11 | 210 | 4.8 | 6.4 | 0.00 | 0.00 | 0.00 | 92 | 1016.0 |
| 20260506080343 | 11 | 198 | 4.8 | 6.4 | 0.00 | 0.00 | 0.00 | 92 | 1016.2 |
| 20260506073328 | 12 | 198 | 4.8 | 6.4 | 0.00 | 0.00 | 0.00 | 90 | 1015.9 |
| 20260506072824 | 12 | 218 | 6.4 | 8.0 | 0.00 | 0.00 | 0.00 | 89 | 1015.8 |
| 20260506072322 | 12 | 226 | 4.8 | 8.0 | 0.00 | 0.00 | 0.00 | 89 | 1015.7 |
| 20260506071819 | 12 | 211 | 6.4 | 6.4 | 0.00 | 0.00 | 0.00 | 89 | 1015.8 |
| 20260506071317 | 12 | 206 | 4.8 | 6.4 | 0.00 | 0.00 | 0.00 | 88 | 1015.7 |
| 20260506070814 | 12 | 188 | 3.2 | 8.0 | 0.00 | 0.00 | 0.00 | 88 | 1015.6 |
| 20260506070311 | 13 | 167 | 4.8 | 4.8 | 0.00 | 0.00 | 0.00 | 87 | 1015.7 |
| 20260506062248 | 13 | 185 | 4.8 | 4.8 | 0.00 | 0.00 | 0.00 | 87 | 1015.4 |
| 20260506061744 | 13 | 209 | 3.2 | 4.8 | 0.00 | 0.00 | 0.00 | 87 | 1015.4 |
| 20260506061241 | 13 | 194 | 4.8 | 4.8 | 0.00 | 0.00 | 0.00 | 86 | 1015.4 |
| 20260506060740 | 13 | 212 | 4.8 | 6.4 | 0.00 | 0.00 | 0.00 | 87 | 1015.2 |
| 20260506060237 | 13 | 201 | 4.8 | 4.8 | 0.00 | 0.00 | 0.00 | 87 | 1015.3 |
| 20260506051209 | 13 | 214 | 3.2 | 3.2 | 0.00 | 0.00 | 0.00 | 87 | 1015.0 |
| 20260506050707 | 13 | 295 | 3.2 | 3.2 | 0.00 | 0.00 | 0.00 | 87 | 1014.8 |
| 20260506050204 | 13 | 220 | 4.8 | 4.8 | 0.00 | 0.00 | 0.00 | 86 | 1014.9 |
| 20260506044655 | 13 | 250 | 4.8 | 4.8 | 0.00 | 0.00 | 0.00 | 85 | 1014.8 |
| 20260506044151 | 13 | 214 | 1.6 | 4.8 | 0.00 | 0.00 | 0.00 | 84 | 1014.8 |
| 20260506043649 | 14 | 297 | 1.6 | 3.2 | 0.00 | 0.00 | 0.00 | 84 | 1014.6 |
| 20260506043147 | 14 | 269 | 1.6 | 3.2 | 0.00 | 0.00 | 0.00 | 84 | 1014.6 |
| 20260506042646 | 14 | 198 | 1.6 | 1.6 | 0.00 | 0.00 | 0.00 | 83 | 1014.7 |
| 20260506042143 | 14 | 208 | 1.6 | 4.8 | 0.00 | 0.00 | 0.00 | 82 | 1014.6 |
| 20260506041641 | 15 | 323 | 3.2 | 4.8 | 0.00 | 0.00 | 0.00 | 81 | 1014.4 |
| 20260506041138 | 15 | 172 | 0.0 | 3.2 | 0.00 | 0.00 | 0.00 | 81 | 1014.4 |
| 20260506040635 | 15 | 212 | 4.8 | 6.4 | 0.00 | 0.00 | 0.00 | 81 | 1014.2 |
| 20260506040132 | 15 | 253 | 3.2 | 6.4 | 0.00 | 0.00 | 0.00 | 80 | 1014.2 |
| 20260506035629 | 15 | 292 | 4.8 | 4.8 | 0.00 | 0.00 | 0.00 | 79 | 1014.1 |
| 20260506035126 | 15 | 252 | 3.2 | 4.8 | 0.00 | 0.00 | 0.00 | 80 | 1014.1 |
| 20260506034623 | 15 | 246 | 3.2 | 6.4 | 0.00 | 0.00 | 0.00 | 79 | 1014.3 |
| 20260506034120 | 15 | 226 | 4.8 | 8.0 | 0.00 | 0.00 | 0.00 | 80 | 1014.1 |
| 20260506033617 | 15 | 262 | 3.2 | 4.8 | 0.00 | 0.00 | 0.00 | 80 | 1014.0 |
| 20260506033114 | 15 | 289 | 3.2 | 4.8 | 0.00 | 0.00 | 0.00 | 79 | 1013.8 |
| 20260506032612 | 16 | 219 | 4.8 | 6.4 | 0.00 | 0.00 | 0.00 | 78 | 1013.9 |
| 20260506032108 | 16 | 240 | 3.2 | 4.8 | 0.00 | 0.00 | 0.00 | 78 | 1013.7 |
| 20260506031606 | 16 | 249 | 4.8 | 6.4 | 0.00 | 0.00 | 0.00 | 77 | 1013.9 |
| 20260506031102 | 16 | 280 | 3.2 | 4.8 | 0.00 | 0.00 | 0.00 | 78 | 1013.6 |
| 20260506030601 | 16 | 261 | 4.8 | 6.4 | 0.00 | 0.00 | 0.00 | 77 | 1013.5 |
| 20260506030057 | 16 | 304 | 4.8 | 4.8 | 0.00 | 0.00 | 0.00 | 77 | 1013.6 |
| 20260506025554 | 16 | 277 | 3.2 | 6.4 | 0.00 | 0.00 | 0.00 | 76 | 1013.5 |
| 20260506025050 | 16 | 249 | 4.8 | 6.4 | 0.00 | 0.00 | 0.00 | 76 | 1013.7 |
| 20260506024548 | 16 | 310 | 3.2 | 4.8 | 0.00 | 0.00 | 0.00 | 76 | 1013.7 |
| 20260506024044 | 17 | 169 | 0.0 | 4.8 | 0.00 | 0.00 | 0.00 | 75 | 1013.5 |
| 20260506023540 | 17 | 244 | 4.8 | 6.4 | 0.00 | 0.00 | 0.00 | 75 | 1013.7 |
| 20260506023038 | 17 | 233 | 3.2 | 4.8 | 0.00 | 0.00 | 0.00 | 73 | 1013.5 |
| 20260506022535 | 17 | 263 | 4.8 | 6.4 | 0.00 | 0.00 | 0.00 | 74 | 1013.7 |
| 20260506022032 | 17 | 250 | 4.8 | 4.8 | 0.00 | 0.00 | 0.00 | 73 | 1013.6 |
| 20260506021530 | 18 | 260 | 4.8 | 4.8 | 0.00 | 0.00 | 0.00 | 73 | 1013.6 |
| 20260506021027 | 18 | 228 | 3.2 | 11.3 | 0.00 | 0.00 | 0.00 | 71 | 1013.4 |
| 20260506020525 | 18 | 243 | 6.4 | 6.4 | 0.00 | 0.00 | 0.00 | 70 | 1013.6 |
| 20260506020022 | 18 | 226 | 9.7 | 11.3 | 0.00 | 0.00 | 0.00 | 69 | 1013.5 |
| 20260506015519 | 18 | 271 | 4.8 | 9.7 | 0.00 | 0.00 | 0.00 | 70 | 1013.4 |
| 20260506015016 | 19 | 234 | 4.8 | 8.0 | 0.00 | 0.00 | 0.00 | 69 | 1013.5 |
| 20260506014514 | 19 | 252 | 4.8 | 6.4 | 0.00 | 0.00 | 0.00 | 69 | 1013.2 |
| 20260506014009 | 19 | 214 | 3.2 | 8.0 | 0.00 | 0.00 | 0.00 | 68 | 1013.4 |
| 20260506013508 | 19 | 278 | 3.2 | 6.4 | 0.00 | 0.00 | 0.00 | 67 | 1013.2 |
| 20260506013004 | 20 | 290 | 4.8 | 4.8 | 0.00 | 0.00 | 0.00 | 67 | 1013.2 |
| 20260506012500 | 20 | 248 | 3.2 | 6.4 | 0.00 | 0.00 | 0.00 | 67 | 1013.3 |
| 20260506011957 | 20 | 217 | 11.3 | 11.3 | 0.00 | 0.00 | 0.00 | 66 | 1013.2 |
| 20260506011454 | 20 | 254 | 4.8 | 6.4 | 0.00 | 0.00 | 0.00 | 67 | 1013.3 |
| 20260506010951 | 20 | 250 | 4.8 | 4.8 | 0.00 | 0.00 | 0.00 | 67 | 1013.1 |
| 20260506010450 | 20 | 289 | 4.8 | 9.7 | 0.00 | 0.00 | 0.00 | 66 | 1013.3 |
| 20260506005945 | 20 | 242 | 6.4 | 6.4 | 0.00 | 0.00 | 0.00 | 67 | 1013.3 |
| 20260506005444 | 20 | 346 | 0.0 | 6.4 | 0.00 | 0.00 | 0.00 | 66 | 1013.2 |
| 20260506004938 | 20 | 226 | 11.3 | 20.9 | 0.00 | 0.00 | 0.00 | 65 | 1013.4 |
| 20260506004437 | 20 | 79 | 3.2 | 11.3 | 0.00 | 0.00 | 0.00 | 65 | 1013.3 |
| 20260506003932 | 20 | 239 | 4.8 | 9.7 | 0.00 | 0.00 | 0.00 | 64 | 1013.2 |
| 20260506003429 | 20 | 189 | 3.2 | 6.4 | 0.00 | 0.00 | 0.00 | 64 | 1013.4 |
| 20260506002926 | 20 | 239 | 4.8 | 11.3 | 0.00 | 0.00 | 0.00 | 63 | 1013.4 |
| 20260506002422 | 20 | 331 | 4.8 | 16.1 | 0.00 | 0.00 | 0.00 | 63 | 1013.3 |
| 20260506001917 | 21 | 249 | 12.9 | 16.1 | 0.00 | 0.00 | 0.00 | 62 | 1013.3 |
| 20260506001415 | 21 | 239 | 4.8 | 9.7 | 0.00 | 0.00 | 0.00 | 63 | 1013.3 |
| 20260506000912 | 21 | 243 | 8.0 | 8.0 | 0.00 | 0.00 | 0.00 | 60 | 1013.3 |
| 20260506000409 | 21 | 264 | 4.8 | 14.5 | 0.00 | 0.00 | 0.00 | 61 | 1013.2 |
| 20260505235906 | 21 | 215 | 3.2 | 6.4 | 0.00 | 0.00 | 0.00 | 60 | 1013.4 |
| 20260505235404 | 22 | 319 | 1.6 | 6.4 | 0.00 | 0.00 | 0.00 | 58 | 1013.3 |
| 20260505234900 | 22 | 206 | 4.8 | 6.4 | 0.00 | 0.00 | 0.00 | 58 | 1013.3 |
| 20260505234358 | 22 | 268 | 4.8 | 11.3 | 0.00 | 0.00 | 0.00 | 57 | 1013.5 |
| 20260505233854 | 22 | 198 | 8.0 | 9.7 | 0.00 | 0.00 | 0.00 | 57 | 1013.4 |
| 20260505233353 | 22 | 259 | 4.8 | 9.7 | 0.00 | 0.00 | 0.00 | 58 | 1013.5 |
| 20260505232850 | 22 | 295 | 9.7 | 9.7 | 0.00 | 0.00 | 0.00 | 58 | 1013.6 |
| 20260505232348 | 23 | 269 | 6.4 | 6.4 | 0.00 | 0.00 | 0.00 | 56 | 1013.8 |
| 20260505231844 | 22 | 6 | 4.8 | 14.5 | 0.00 | 0.00 | 0.00 | 57 | 1013.8 |
| 20260505231341 | 23 | 228 | 12.9 | 14.5 | 0.00 | 0.00 | 0.00 | 55 | 1013.7 |
| 20260505230840 | 23 | 293 | 3.2 | 9.7 | 0.00 | 0.00 | 0.00 | 56 | 1013.7 |
| 20260505230337 | 22 | 249 | 6.4 | 14.5 | 0.00 | 0.00 | 0.00 | 56 | 1013.7 |
| 20260505225833 | 23 | 259 | 4.8 | 8.0 | 0.00 | 0.00 | 0.00 | 54 | 1013.9 |
| 20260505225331 | 23 | 237 | 8.0 | 9.7 | 0.00 | 0.00 | 0.00 | 54 | 1014.0 |
| 20260505224825 | 23 | 208 | 3.2 | 9.7 | 0.00 | 0.00 | 0.00 | 53 | 1013.9 |
| 20260505224324 | 23 | 230 | 3.2 | 9.7 | 0.00 | 0.00 | 0.00 | 54 | 1014.0 |
| 20260505223820 | 22 | 236 | 6.4 | 11.3 | 0.00 | 0.00 | 0.00 | 56 | 1013.8 |
| 20260505223317 | 22 | 293 | 8.0 | 8.0 | 0.00 | 0.00 | 0.00 | 57 | 1013.9 |
| 20260505222813 | 22 | 300 | 3.2 | 8.0 | 0.00 | 0.00 | 0.00 | 55 | 1014.0 |
| 20260505222309 | 22 | 225 | 8.0 | 14.5 | 0.00 | 0.00 | 0.00 | 54 | 1014.0 |
| 20260505221807 | 22 | 322 | 4.8 | 8.0 | 0.00 | 0.00 | 0.00 | 55 | 1013.9 |
| 20260505221303 | 22 | 265 | 8.0 | 9.7 | 0.00 | 0.00 | 0.00 | 56 | 1014.0 |
| 20260505220800 | 22 | 299 | 6.4 | 11.3 | 0.00 | 0.00 | 0.00 | 56 | 1014.2 |
| 20260505220257 | 22 | 244 | 11.3 | 11.3 | 0.00 | 0.00 | 0.00 | 56 | 1014.2 |
| 20260505215755 | 22 | 248 | 6.4 | 9.7 | 0.00 | 0.00 | 0.00 | 60 | 1014.2 |
| 20260505215253 | 21 | 285 | 6.4 | 16.1 | 0.00 | 0.00 | 0.00 | 57 | 1014.1 |
| 20260505214750 | 22 | 240 | 11.3 | 12.9 | 0.00 | 0.00 | 0.00 | 57 | 1014.1 |
| 20260505214248 | 21 | 247 | 4.8 | 9.7 | 0.00 | 0.00 | 0.00 | 60 | 1014.3 |
| 20260505213745 | 21 | 211 | 11.3 | 16.1 | 0.00 | 0.00 | 0.00 | 60 | 1014.3 |
| 20260505213243 | 21 | 249 | 6.4 | 14.5 | 0.00 | 0.00 | 0.00 | 59 | 1014.2 |
| 20260505212738 | 21 | 153 | 1.6 | 17.7 | 0.00 | 0.00 | 0.00 | 58 | 1014.5 |
| 20260505212235 | 21 | 268 | 4.8 | 12.9 | 0.00 | 0.00 | 0.00 | 61 | 1014.3 |
| 20260505211732 | 21 | 267 | 8.0 | 16.1 | 0.00 | 0.00 | 0.00 | 62 | 1014.1 |
| 20260505211230 | 21 | 95 | 3.2 | 9.7 | 0.00 | 0.00 | 0.00 | 61 | 1014.3 |
| 20260505210726 | 21 | 321 | 4.8 | 11.3 | 0.00 | 0.00 | 0.00 | 62 | 1014.3 |
| 20260505210223 | 21 | 200 | 6.4 | 12.9 | 0.00 | 0.00 | 0.00 | 63 | 1014.3 |
| 20260505205720 | 21 | 117 | 0.0 | 6.4 | 0.00 | 0.00 | 0.00 | 62 | 1014.4 |
| 20260505205218 | 21 | 176 | 6.4 | 8.0 | 0.00 | 0.00 | 0.00 | 63 | 1014.1 |
| 20260505204715 | 21 | 241 | 8.0 | 22.5 | 0.00 | 0.00 | 0.00 | 62 | 1014.2 |
| 20260505204213 | 21 | 331 | 6.4 | 8.0 | 0.00 | 0.00 | 0.00 | 64 | 1014.4 |
| 20260505203710 | 20 | 241 | 6.4 | 20.9 | 0.00 | 0.00 | 0.00 | 64 | 1014.4 |
| 20260505203207 | 20 | 242 | 3.2 | 14.5 | 0.00 | 0.00 | 0.00 | 63 | 1014.4 |
| 20260505202702 | 20 | 291 | 4.8 | 14.5 | 0.00 | 0.00 | 0.00 | 62 | 1014.5 |
| 20260505202158 | 21 | 30 | 4.8 | 9.7 | 0.00 | 0.00 | 0.00 | 62 | 1014.3 |
| 20260505201655 | 21 | 205 | 3.2 | 6.4 | 0.00 | 0.00 | 0.00 | 63 | 1014.5 |
| 20260505201153 | 20 | 225 | 4.8 | 11.3 | 0.00 | 0.00 | 0.00 | 63 | 1014.4 |
| 20260505200651 | 20 | 185 | 1.6 | 8.0 | 0.00 | 0.00 | 0.00 | 63 | 1014.5 |
| 20260505200147 | 21 | 267 | 9.7 | 17.7 | 0.00 | 0.00 | 0.00 | 61 | 1014.5 |
| 20260505195643 | 21 | 253 | 6.4 | 14.5 | 0.00 | 0.00 | 0.00 | 62 | 1014.5 |
| 20260505195141 | 21 | 334 | 6.4 | 9.7 | 0.00 | 0.00 | 0.00 | 62 | 1014.4 |
| 20260505194638 | 21 | 265 | 8.0 | 9.7 | 0.00 | 0.00 | 0.00 | 62 | 1014.5 |
| 20260505194134 | 20 | 231 | 6.4 | 8.0 | 0.00 | 0.00 | 0.00 | 62 | 1014.6 |
| 20260505193630 | 20 | 240 | 9.7 | 12.9 | 0.00 | 0.00 | 0.00 | 63 | 1014.6 |
| 20260505193127 | 20 | 141 | 3.2 | 8.0 | 0.00 | 0.00 | 0.00 | 63 | 1014.5 |
| 20260505192626 | 20 | 107 | 4.8 | 16.1 | 0.00 | 0.00 | 0.00 | 63 | 1014.6 |
| 20260505192123 | 21 | 200 | 6.4 | 8.0 | 0.00 | 0.00 | 0.00 | 62 | 1014.5 |
| 20260505191622 | 20 | 276 | 4.8 | 12.9 | 0.00 | 0.00 | 0.00 | 63 | 1014.3 |
| 20260505191119 | 20 | 195 | 6.4 | 17.7 | 0.00 | 0.00 | 0.00 | 62 | 1014.6 |
| 20260505190615 | 20 | 268 | 3.2 | 8.0 | 0.00 | 0.00 | 0.00 | 61 | 1014.5 |
| 20260505190110 | 21 | 161 | 3.2 | 9.7 | 0.00 | 0.00 | 0.00 | 60 | 1014.5 |
| 20260505185607 | 20 | 234 | 1.6 | 19.3 | 0.00 | 0.00 | 0.00 | 62 | 1014.5 |
| 20260505185103 | 20 | 328 | 3.2 | 6.4 | 0.00 | 0.00 | 0.00 | 64 | 1014.5 |
| 20260505184600 | 20 | 202 | 1.6 | 14.5 | 0.00 | 0.00 | 0.00 | 62 | 1014.5 |
| 20260505184057 | 20 | 174 | 4.8 | 9.7 | 0.00 | 0.00 | 0.00 | 61 | 1014.5 |
| 20260505183553 | 20 | 114 | 3.2 | 8.0 | 0.00 | 0.00 | 0.00 | 63 | 1014.5 |
| 20260505183051 | 20 | 234 | 3.2 | 14.5 | 0.00 | 0.00 | 0.00 | 60 | 1014.6 |
| 20260505182547 | 20 | 75 | 1.6 | 9.7 | 0.00 | 0.00 | 0.00 | 59 | 1014.6 |
| 20260505182044 | 20 | 107 | 12.9 | 14.5 | 0.00 | 0.00 | 0.00 | 58 | 1014.5 |
| 20260505181541 | 20 | 228 | 9.7 | 11.3 | 0.00 | 0.00 | 0.00 | 58 | 1014.7 |
| 20260505181038 | 20 | 205 | 8.0 | 11.3 | 0.00 | 0.00 | 0.00 | 58 | 1014.6 |
| 20260505180533 | 20 | 218 | 6.4 | 11.3 | 0.00 | 0.00 | 0.00 | 57 | 1014.6 |
| 20260505180033 | 20 | 226 | 8.0 | 9.7 | 0.00 | 0.00 | 0.00 | 57 | 1014.7 |
| 20260505175532 | 20 | 241 | 8.0 | 12.9 | 0.00 | 0.00 | 0.00 | 57 | 1014.7 |
| 20260505175029 | 20 | 240 | 6.4 | 11.3 | 0.00 | 0.00 | 0.00 | 59 | 1014.6 |
| 20260505174526 | 20 | 229 | 8.0 | 9.7 | 0.00 | 0.00 | 0.00 | 57 | 1014.7 |
| 20260505174022 | 20 | 172 | 6.4 | 9.7 | 0.00 | 0.00 | 0.00 | 57 | 1014.7 |
| 20260505173519 | 20 | 252 | 4.8 | 6.4 | 0.00 | 0.00 | 0.00 | 57 | 1014.8 |
| 20260505173016 | 19 | 248 | 4.8 | 9.7 | 0.00 | 0.00 | 0.00 | 61 | 1014.7 |
| 20260505172514 | 18 | 194 | 6.4 | 11.3 | 0.00 | 0.00 | 0.00 | 60 | 1014.9 |
| 20260505172009 | 18 | 191 | 4.8 | 9.7 | 0.00 | 0.00 | 0.00 | 61 | 1014.6 |
| 20260505171505 | 18 | 200 | 6.4 | 12.9 | 0.00 | 0.00 | 0.00 | 62 | 1014.8 |
| 20260505171002 | 18 | 201 | 11.3 | 11.3 | 0.00 | 0.00 | 0.00 | 61 | 1014.8 |
| 20260505170459 | 18 | 204 | 4.8 | 9.7 | 0.00 | 0.00 | 0.00 | 62 | 1014.8 |
| 20260505165954 | 18 | 219 | 6.4 | 9.7 | 0.00 | 0.00 | 0.00 | 61 | 1014.9 |